When you browse on this site, cookies collect data to enhance your experience and personalize the content and advertising you see.
Visit our Privacy Policy to learn more. By continuing to use the site, you agree to this use of cookies and data.
  • en France
  • Liste des pays
  • À 7 jours
  • Température de l'eau
  • Carte satellitaire
  • Carte météo
  • Widgets météo
  • user-avatar
    Se connecter

    Météo par heure à Rangpur

    Ce jour, 20 Juillet, Samedi

    Heure Température Précipitation Vent Pression Humidité
    00:00 +31°C° 0 mm 3 m/s 749 mmHg 74%
    01:00 +31°C° 0.1 mm 3 m/s 749 mmHg 76%
    02:00 +31°C° 0.1 mm 3 m/s 749 mmHg 79%
    03:00 +30°C° 0.1 mm 3 m/s 749 mmHg 81%
    04:00 +30°C° 0.6 mm 3 m/s 749 mmHg 83%
    05:00 +30°C° 0.6 mm 3 m/s 749 mmHg 85%
    06:00 +30°C° 0.6 mm 3 m/s 749 mmHg 87%
    07:00 +31°C° 1.2 mm 3 m/s 749 mmHg 82%
    08:00 +33°C° 1.2 mm 4 m/s 750 mmHg 76%
    09:00 +34°C° 1.2 mm 4 m/s 750 mmHg 71%
    10:00 +35°C° 2.1 mm 4 m/s 750 mmHg 67%
    11:00 +36°C° 2.1 mm 4 m/s 750 mmHg 64%
    12:00 +37°C° 2.1 mm 4 m/s 749 mmHg 60%
    13:00 +37°C° 0.8 mm 4 m/s 749 mmHg 58%
    14:00 +38°C° 0.8 mm 3 m/s 748 mmHg 56%
    15:00 +38°C° 0.8 mm 3 m/s 748 mmHg 54%
    16:00 +37°C° 0.7 mm 3 m/s 748 mmHg 58%
    17:00 +37°C° 0.7 mm 3 m/s 748 mmHg 61%
    18:00 +36°C° 0.7 mm 2 m/s 747 mmHg 65%
    19:00 +35°C° 0.4 mm 2 m/s 748 mmHg 68%
    20:00 +35°C° 0.4 mm 2 m/s 748 mmHg 70%
    21:00 +34°C° 0.4 mm 2 m/s 748 mmHg 73%
    22:00 +32°C° 0.5 mm 2 m/s 748 mmHg 74%
    23:00 +33°C° 0.5 mm 3 m/s 749 mmHg 75%

    Demain, 21 Juillet, Dimanche

    Heure Température Précipitation Vent Pression Humidité
    00:00 +33°C° 0.5 mm 3 m/s 749 mmHg 76%
    01:00 +31°C° 0.5 mm 3 m/s 749 mmHg 77%
    02:00 +31°C° 0.5 mm 3 m/s 748 mmHg 77%
    03:00 +31°C° 0.5 mm 3 m/s 748 mmHg 78%
    04:00 +30°C° 0.3 mm 3 m/s 748 mmHg 79%
    05:00 +30°C° 0.3 mm 4 m/s 748 mmHg 81%
    06:00 +30°C° 0.3 mm 4 m/s 748 mmHg 83%
    07:00 +31°C° 0.5 mm 3 m/s 749 mmHg 80%
    08:00 +31°C° 0.5 mm 3 m/s 749 mmHg 76%
    09:00 +33°C° 0.5 mm 3 m/s 750 mmHg 72%
    10:00 +35°C° 0.7 mm 3 m/s 749 mmHg 68%
    11:00 +36°C° 0.7 mm 3 m/s 749 mmHg 63%
    12:00 +37°C° 0.7 mm 3 m/s 749 mmHg 59%
    13:00 +37°C° 1.7 mm 3 m/s 749 mmHg 60%
    14:00 +37°C° 1.7 mm 3 m/s 748 mmHg 61%
    15:00 +37°C° 1.7 mm 2 m/s 747 mmHg 61%
    16:00 +36°C° 0.8 mm 2 m/s 747 mmHg 65%
    17:00 +35°C° 0.8 mm 2 m/s 747 mmHg 68%
    18:00 +35°C° 0.8 mm 2 m/s 746 mmHg 72%
    19:00 +34°C° 0.2 mm 2 m/s 747 mmHg 73%
    20:00 +34°C° 0.2 mm 2 m/s 747 mmHg 74%
    21:00 +32°C° 0.2 mm 2 m/s 748 mmHg 75%
    22:00 +32°C° 0.2 mm 2 m/s 748 mmHg 75%
    23:00 +32°C° 0.2 mm 2 m/s 748 mmHg 76%

    Après-demain, 22 Juillet, Lundi

    Heure Température Précipitation Vent Pression Humidité
    00:00 +31°C° 0.2 mm 3 m/s 748 mmHg 76%
    01:00 +31°C° 0.5 mm 3 m/s 747 mmHg 77%
    02:00 +32°C° 0.5 mm 4 m/s 747 mmHg 77%
    03:00 +32°C° 0.5 mm 4 m/s 747 mmHg 77%
    04:00 +30°C° 1.3 mm 3 m/s 747 mmHg 81%
    05:00 +30°C° 1.3 mm 2 m/s 747 mmHg 84%
    06:00 +29°C° 1.3 mm 1 m/s 747 mmHg 88%
    07:00 +29°C° 2 mm 1 m/s 748 mmHg 89%
    08:00 +29°C° 2 mm 2 m/s 748 mmHg 91%
    09:00 +29°C° 2 mm 2 m/s 749 mmHg 92%
    10:00 +29°C° 1.2 mm 2 m/s 749 mmHg 90%
    11:00 +30°C° 1.2 mm 2 m/s 749 mmHg 88%
    12:00 +30°C° 1.2 mm 2 m/s 749 mmHg 86%
    13:00 +30°C° 0.9 mm 2 m/s 749 mmHg 86%
    14:00 +30°C° 0.9 mm 2 m/s 748 mmHg 86%
    15:00 +29°C° 0.9 mm 1 m/s 748 mmHg 87%
    16:00 +29°C° 0.2 mm 1 m/s 748 mmHg 87%
    17:00 +29°C° 0.2 mm 1 m/s 747 mmHg 87%
    18:00 +29°C° 0.2 mm 1 m/s 747 mmHg 87%
    19:00 +29°C° 0.1 mm 1 m/s 748 mmHg 87%
    20:00 +29°C° 0.1 mm 1 m/s 748 mmHg 87%
    21:00 +29°C° 0.1 mm 2 m/s 749 mmHg 87%
    22:00 +29°C° 0.9 mm 2 m/s 749 mmHg 88%
    23:00 +28°C° 0.9 mm 1 m/s 749 mmHg 89%

    23 Juillet, Mardi

    Heure Température Précipitation Vent Pression Humidité
    00:00 +28°C° 0.9 mm 1 m/s 749 mmHg 90%
    01:00 +28°C° 1.2 mm 1 m/s 748 mmHg 91%
    02:00 +28°C° 1.2 mm 1 m/s 748 mmHg 91%
    03:00 +28°C° 1.2 mm 1 m/s 748 mmHg 92%
    04:00 +28°C° 0.3 mm 1 m/s 748 mmHg 91%
    05:00 +28°C° 0.3 mm 1 m/s 748 mmHg 91%
    06:00 +28°C° 0.3 mm 1 m/s 748 mmHg 90%
    07:00 +29°C° 0.2 mm 1 m/s 748 mmHg 87%
    08:00 +29°C° 0.2 mm 1 m/s 749 mmHg 84%
    09:00 +30°C° 0.2 mm 1 m/s 749 mmHg 81%
    10:00 +31°C° 1.1 mm 1 m/s 749 mmHg 77%
    11:00 +32°C° 1.1 mm 1 m/s 749 mmHg 73%
    12:00 +33°C° 1.1 mm 1 m/s 749 mmHg 69%
    13:00 +33°C° 0.4 mm 1 m/s 748 mmHg 67%
    14:00 +33°C° 0.4 mm 1 m/s 748 mmHg 65%
    15:00 +34°C° 0.4 mm 1 m/s 747 mmHg 63%
    16:00 +34°C° 0 mm 2 m/s 747 mmHg 66%
    17:00 +34°C° 0 mm 2 m/s 747 mmHg 68%
    18:00 +32°C° 0 mm 2 m/s 747 mmHg 71%
    19:00 +32°C° 0 mm 2 m/s 747 mmHg 75%
    20:00 +31°C° 0 mm 3 m/s 748 mmHg 78%
    21:00 +30°C° 0 mm 3 m/s 748 mmHg 81%
    22:00 +30°C° 0.1 mm 3 m/s 748 mmHg 83%
    23:00 +30°C° 0.1 mm 3 m/s 748 mmHg 84%

    24 Juillet, Mercredi

    Heure Température Précipitation Vent Pression Humidité
    00:00 +29°C° 0.1 mm 3 m/s 748 mmHg 85%
    01:00 +29°C° 0.2 mm 3 m/s 748 mmHg 86%
    02:00 +29°C° 0.2 mm 3 m/s 747 mmHg 88%
    03:00 +29°C° 0.2 mm 3 m/s 747 mmHg 89%
    04:00 +28°C° 1 mm 3 m/s 747 mmHg 90%
    05:00 +28°C° 1 mm 3 m/s 747 mmHg 91%
    06:00 +28°C° 1 mm 2 m/s 747 mmHg 92%
    07:00 +29°C° 1.1 mm 3 m/s 747 mmHg 87%
    08:00 +31°C° 1.1 mm 3 m/s 748 mmHg 81%
    09:00 +33°C° 1.1 mm 3 m/s 748 mmHg 76%
    10:00 +34°C° 1.3 mm 3 m/s 748 mmHg 73%
    11:00 +34°C° 1.3 mm 4 m/s 748 mmHg 70%
    12:00 +35°C° 1.3 mm 4 m/s 747 mmHg 68%
    13:00 +35°C° 0.8 mm 4 m/s 747 mmHg 67%
    14:00 +36°C° 0.8 mm 4 m/s 746 mmHg 66%
    15:00 +36°C° 0.8 mm 4 m/s 746 mmHg 65%
    16:00 +36°C° 0.4 mm 4 m/s 746 mmHg 67%
    17:00 +35°C° 0.4 mm 4 m/s 746 mmHg 69%
    18:00 +35°C° 0.4 mm 3 m/s 746 mmHg 72%
    19:00 +34°C° 0.7 mm 4 m/s 746 mmHg 75%
    20:00 +33°C° 0.7 mm 4 m/s 747 mmHg 78%
    21:00 +32°C° 0.7 mm 5 m/s 748 mmHg 81%
    22:00 +32°C° 0.4 mm 5 m/s 748 mmHg 82%
    23:00 +30°C° 0.4 mm 5 m/s 748 mmHg 83%

    25 Juillet, Jeudi

    Heure Température Précipitation Vent Pression Humidité
    00:00 +30°C° 0.4 mm 4 m/s 748 mmHg 83%
    01:00 +30°C° 1.9 mm 4 m/s 748 mmHg 85%
    02:00 +29°C° 1.9 mm 4 m/s 748 mmHg 87%
    03:00 +29°C° 1.9 mm 4 m/s 747 mmHg 89%
    04:00 +29°C° 3.6 mm 4 m/s 748 mmHg 89%
    05:00 +29°C° 3.6 mm 4 m/s 748 mmHg 90%
    06:00 +29°C° 3.6 mm 4 m/s 748 mmHg 90%
    07:00 +29°C° 2.6 mm 4 m/s 748 mmHg 90%
    08:00 +29°C° 2.6 mm 4 m/s 749 mmHg 90%
    09:00 +29°C° 2.6 mm 4 m/s 749 mmHg 90%
    10:00 +29°C° 0.3 mm 4 m/s 749 mmHg 88%
    11:00 +30°C° 0.3 mm 3 m/s 749 mmHg 85%
    12:00 +31°C° 0.3 mm 3 m/s 749 mmHg 82%
    13:00 +32°C° 0.7 mm 4 m/s 748 mmHg 80%
    14:00 +33°C° 0.7 mm 4 m/s 748 mmHg 78%
    15:00 +33°C° 0.7 mm 4 m/s 747 mmHg 76%
    16:00 +33°C° 0.2 mm 4 m/s 747 mmHg 77%
    17:00 +33°C° 0.2 mm 4 m/s 747 mmHg 79%
    18:00 +31°C° 0.2 mm 3 m/s 747 mmHg 80%
    19:00 +31°C° 0.1 mm 3 m/s 748 mmHg 82%
    20:00 +30°C° 0.1 mm 3 m/s 748 mmHg 84%
    21:00 +30°C° 0.1 mm 4 m/s 749 mmHg 86%
    22:00 +29°C° 0.3 mm 4 m/s 749 mmHg 86%
    23:00 +29°C° 0.3 mm 4 m/s 749 mmHg 86%
    Voir plus